[Iaude] MPEC G66: 2024 FL5 [a=1.84,e=0.71,i=15.7,H=21.3]
    mpec at cfa.harvard.edu 
    mpec at cfa.harvard.edu
       
    Fri Apr  5 09:35:03 EDT 2024
    
    
  
M.P.E.C. 2024-G66                                 Issued 2024 April 5, 13:33 UT
     The Minor Planet Electronic Circulars contain information on unusual
         minor planets, routine data on comets and natural satellites,
         and occasional editorial announcements.  They are published
    on behalf of Division F of the International Astronomical Union by the
          Minor Planet Center, Smithsonian Astrophysical Observatory,
                          Cambridge, MA 02138, U.S.A.
			  
             Prepared using the Tamkin Foundation Computer Network
                              MPC at CFA.HARVARD.EDU
            URL https://www.minorplanetcenter.net/    ISSN 1523-6714
                                    2024 FL5                                    
Observations:
     K24F05L* C2024 03 31.38050811 36 41.657-23 05 11.20         21.52wXEG066F51
     K24F05L  C2024 03 31.40414711 36 39.602-23 04 11.11         21.60wXEG066F51
     K24F05L  C2024 03 31.41533611 36 38.630-23 03 42.53         22.03wXEG066F51
     K24F05L  C2024 03 31.51836011 36 29.637-22 59 18.49         21.83GVEG066F52
     K24F05L  C2024 03 31.51901011 36 29.553-22 59 16.63         22.15GVEG066F52
     K24F05L |C2024 04 02.21148011 34 19.130-21 48 47.10         21.8 GVEG066807
     K24F05L |C2024 04 02.22249011 34 18.240-21 48 19.30         21.7 GVEG066807
     K24F05L |C2024 04 02.23195011 34 17.500-21 47 56.10         22.2 GVEG066807
     K24F05L  C2024 04 02.40767711 34 05.116-21 41 00.62         21.49GVEG066F51
     K24F05L KC2024 04 04.24540 11 32 00.59 -20 28 24.5                VEG066291
     K24F05L KC2024 04 04.25186 11 32 00.14 -20 28 09.5          22.3 RVEG066291
     K24F05L KC2024 04 04.25834 11 31 59.72 -20 27 54.6          22.1 RVEG066291
Observer details:
291 LPL/Spacewatch II.  Observer T. H. Bressi.  1.8-m f/2.7 reflector + CCD.
807 Cerro Tololo Observatory, La Serena.  Observers T. Linder, R. Holmes.
    0.61-m f/6.8 Ritchey-Chretien + CCD.
F51 Pan-STARRS 1, Haleakala.  Observers J. Herman, T. Lowe, P. Minguez, A.
    Schultz, I. Smith.  Measurers K. Chambers, T. de Boer, J. Fairlamb, H.
    Gao, M. Huber, C.-C. Lin, E. Magnier, Y. Ramanjooloo, R. Wainscoat, R.
    Weryk.  1.8-m Ritchey-Chretien + CCD.
F52 Pan-STARRS 2, Haleakala.  Observers J. Herman, T. Lowe, P. Minguez, A.
    Schultz, I. Smith.  Measurers K. Chambers, T. de Boer, J. Fairlamb, H.
    Gao, M. Huber, C.-C. Lin, E. Magnier, Y. Ramanjooloo, R. Wainscoat, R.
    Weryk.  1.8-m Ritchey-Chretien + CCD.
Orbital elements:
2024 FL5                                                 Earth MOID = 0.2415 AU
Epoch 2024 Mar. 31.0 TT = JDT 2460400.5                 MPC                     
M  37.88367              (2000.0)            P               Q                  
n   0.39477357     Peri.  199.95271     +0.48311214     -0.85691538             
a   1.8403652      Node   221.70925     +0.83551002     +0.51256703             
e   0.7096858      Incl.   15.67085     +0.26177409     -0.05450754             
P   2.50           H   21.32          G   0.15           U   9                  
Residuals in seconds of arc
240331 F51  0.5-  0.2+    240331 F52  0.2-  0.1+    240402 F51  0.3+  0.1+
240331 F51  0.0   0.1-    240402 807  0.1-  0.6-    240404 291  0.1+  0.0
240331 F51  0.2+  0.1-    240402 807  0.5-  0.2+    240404 291  0.0   0.1+
240331 F52  0.2+  0.1-    240402 807  0.6-  0.2+    240404 291  0.3+  0.0
Ephemeris:
2024 FL5                 a,e,i = 1.84, 0.71, 16                  q = 0.5343
Date    TT    R. A. (2000) Decl.     Delta      r    Elong.  Phase     V
2024 03 06    12 47 17.4 -44 34 48   0.4261  1.2844   124.9    39.3    21.6
...
2024 03 21    11 56 04.5 -31 17 08   0.5065  1.4535   148.9    20.7    21.7
...
2024 03 29    11 40 12.3 -24 49 13   0.5743  1.5390   155.3    15.7    21.9
...
2024 04 04    11 32 16.3 -20 37 45   0.6365  1.6009   155.4    15.1    22.2
2024 04 05    11 31 13.9 -19 59 27   0.6478  1.6110   155.0    15.2    22.3
2024 04 06    11 30 15.8 -19 22 12   0.6593  1.6211   154.6    15.4    22.3
...
2024 04 12    11 25 52.9 -16 00 15   0.7334  1.6807   150.7    17.0    22.7
...
2024 04 20    11 23 15.9 -12 25 16   0.8443  1.7574   143.7    19.8    23.2
...
2024 05 05    11 25 29.5 -07 58 20   1.0824  1.8934   129.7    24.2    24.0
A. U. Tomatic                (C) Copyright 2024 MPC           M.P.E.C. 2024-G66
    
    
More information about the Iaude
mailing list